-> Other stations

1455

Speed(max): 9.2(13.5)knots
Direction:122° ( ESE)
Temperature: 16.3°C
Arrived: 2026-05-06 23:36:00 CEST

Past data:
hh:mmknots
Dir (°)
°C
23:34 8.6 11.9 SE(136) 16.3
23:31 9.2 12.4 SE(134) 16.3
23:30 9.2 13.5 SE(127) 16.3
23:28 9.2 14 ESE(112) 16.5
23:26 4.3 10.3 SE(137) 16.3
23:24 4.9 7.6 S(178) 16.3
23:22 4.9 8.6 SSE(163) 16.3
23:19 5.4 8.1 SE(142) 16.3
23:18 6.5 12.4 SE(146) 16.3
23:16 9.2 13.5 SE(137) 16.3
23:13 8.1 13.5 SE(125) 16.3
23:12 8.6 11.9 SE(135) 16.3
23:10 7 11.3 SE(129) 16.3
23:08 6.5 10.8 SE(133) 16.3
15 min. averages:
hh:mmknots
Dir (°)
°C
23:30 6.5 14 SE(145) 16.3
23:15 8.1 17.3 SE(136) 16.3
23:00 9.2 15.7 SE(131) 16.2
22:45 9.2 15.1 SE(130) 16.2
22:30 9.2 17.3 SE(131) 16.3
22:15 9.7 18.9 SE(136) 16.4
22:00 10.8 18.4 SE(132) 16.5
21:45 10.8 17.8 SE(132) 16.5
21:30 10.8 17.8 SE(126) 16.5
21:15 10.8 17.8 SE(128) 16.5
21:00 10.8 17.8 SE(128) 16.3
20:45 10.8 17.3 SE(130) 16.5
20:30 11.3 18.4 SE(126) 16.5
20:15 10.3 17.8 SE(131) 16.5
20:00 10.8 17.3 SE(129) 16.5
Stations at HR:
1455
-> Other regions

Desktop view
Data provided by Holfuy.
© Holfuy Weather 2026